Regional Weather Roundup
Issued by NWS

Home | Current Version | Previous Version | Text Only | Print | Product List | Glossary Off
Versions: 1 2 3 4 5 6 7 8 9 10 11 12 13 14 15 16 17 18 19 20 21 22 23 24 25 26 27 28 29 30 31 32 33 34 35 36 37 38 39 40 41 42 43 44 45 46 47 48 49 50

000
ASUS45 KBOU 041707
RWRCO

WEATHER ROUNDUP FOR COLORADO
NATIONAL WEATHER SERVICE DENVER/BOULDER CO
1000 AM MST WED MAR 04 2015

NOTE: "FAIR" INDICATES FEW OR NO CLOUDS BELOW 12000 FEET WITH NO
SIGNIFICANT WEATHER AND/OR OBSTRUCTIONS TO VISIBILITY.

COZ001>005-013-030-031-041800-
...NORTHWEST COLORADO...

CITY           SKY/WX    TMP DP  RH WIND       PRES   REMARKS
CRAIG          LGT SNOW  13   8  81 CALM      30.09R VSB 3/4
HAYDEN         CLOUDY    10   3  72 W3        30.05R VSB 1
MEEKER         PTSUNNY   17   8  67 CALM      30.05R
MOUNT WERNER   NOT AVBL
STEAMBOAT SPGS CLOUDY    12   5  76 CALM      30.03R
WALDEN         CLOUDY     9   1  72 CALM      29.94R
$$

COZ006>008-011-041800-
...WEST CENTRAL VALLEYS...

CITY           SKY/WX    TMP DP  RH WIND       PRES   REMARKS
GRAND JUNCTION SUNNY     31  14  49 CALM      30.09R
MONTROSE       MOSUNNY   28  14  55 NW5       30.08R WCI  23
EAGLE          MOSUNNY   36  25  64 CALM      30.05S
RIFLE          SUNNY     29   8  41 CALM      30.08R
DELTA          MOSUNNY   32  20  59 CALM      30.08S
NUCLA          NOT AVBL
$$

COZ017>023-064>068-041800-
...SOUTHWEST COLORADO...

CITY           SKY/WX    TMP DP  RH WIND       PRES   REMARKS
DURANGO        SUNNY     28  20  71 W5        29.95R WCI  23
CORTEZ         SUNNY     31  15  52 NW7       30.02R WCI  24
PAGOSA SPRINGS MOSUNNY   25  25 100 S3        29.93S
TELLURIDE      FLURRIES  18  14  84 W17       29.95R WCI   3
WOLF CREEK PAS CLOUDY     9   9 100 MISG      29.87R
$$

COZ009-010-012-014-032>034-037-058>063-041800-
...CENTRAL COLORADO...

CITY           SKY/WX    TMP DP  RH WIND       PRES   REMARKS
ASPEN          MOSUNNY   20   8  60 CALM      29.97S
BUENA VISTA    PTSUNNY   23  10  57 E7        29.92S WCI  15
COPPER MTN     NOT AVBL
BERTHOUD PASS  NOT AVBL
COTTONWOOD PAS CLOUDY    19   5  53 E3        29.87S
GUNNISON       CLOUDY    21   7  53 SE3       29.98R
KREMMLING      CLOUDY    19   3  49 CALM      29.99S
LEADVILLE      CLOUDY    10  -4  53 W10G16    29.85F WCI  -4
SALIDA         CLOUDY    22  17  81 SE9       30.02S VSB 1   WCI  12
SUNLIGHT       SUNNY      9   3  78 CALM        N/A
WILKERSON PASS LGT SNOW   7   3  85 W5        29.84S WCI  -2
$$

COZ069>075-041800-
...SAN LUIS VALLEY/SANGRE DE CRISTO MOUNTAINS...

CITY           SKY/WX    TMP DP  RH WIND       PRES   REMARKS
ALAMOSA        CLOUDY    30  13  49 CALM      29.90R
LA VETA PASS   SNOW       7   3  85 MISG      29.87S VSB 1/2
SAGUACHE       MOSUNNY   28  12  50 NW10      29.91R WCI  19
$$

COZ035-036-038>040-041800-
...NORTHERN COLORADO FRONT RANGE...

CITY           SKY/WX    TMP DP  RH WIND       PRES   REMARKS
DENVER INTL AP MOSUNNY   12   7  80 E7        30.13F HAZE    WCI   1
DMNS CITY PARK   N/A     16   8  71 S7        30.13F WCI   6
AURORA         MOSUNNY   12   6  76 SE7       30.12F WCI   1
FRONT RANGE AP NOT AVBL
ERIE MUNI ARPT SUNNY     16  10  76 SE9       30.15F WCI   4
BOULDER MUN AP FLURRIES  18   9  68 E6        30.13F WCI   9
CENTENNIAL     CLOUDY    13   6  74 E3        30.10S
BROOMFIELD     CLOUDY    16   9  73 E7        30.11F WCI   6
FORT COLLINS   SUNNY     12   7  79 SE8       30.17F WCI   1
LONGMONT       PTSUNNY   23   8  53 SE6       30.18S WCI  16
$$

COZ041-046-047-076>085-087-088-041800-
...PIKES PEAK/PALMER DIVIDE AND SOUTHERN FOOTHILLS...

CITY           SKY/WX    TMP DP  RH WIND       PRES   REMARKS
COLO. SPRINGS  PTSUNNY   13   6  74 E8        30.10R WCI   2
A. F. ACADEMY  MOSUNNY   12   3  67 CALM      30.05S
ELLICOTT       NOT AVBL
FALCON         CLOUDY    13   4  69 NE6       30.05S WCI   4
FORT CARSON    LGT SNOW  13   7  77 E8        30.11R VSB 1   WCI   1
LIMON          CLOUDY    13   5  70 N9        30.15S WCI   1
MONUMENT HILL  LGT SNOW  12   3  67 CALM      30.01F
TRINIDAD       LGT SNOW  17  13  84 NE16      30.10R VSB 3/4 WCI   2
$$

COZ042>045-048>051-090-091-041800-
...NORTHEAST COLORADO...

CITY           SKY/WX    TMP DP  RH WIND       PRES   REMARKS
GREELEY ARPT   SUNNY     18   5  57 S7        30.18S WCI   8
AKRON          PTSUNNY   16   1  51 VRB3      30.17S
BURLINGTON     CLOUDY    18   5  57 N9        30.21S WCI   7
WRAY           SUNNY     24   7  48 W7        30.23F WCI  16
STERLING       SUNNY     21   9  58 W8        30.20F WCI  12
HOLYOKE        NOT AVBL
FORT MORGAN    SUNNY     20   6  55 W8        30.19S WCI  10
$$

COZ086-089-092>099-041800-
...SOUTHEAST COLORADO...

CITY           SKY/WX    TMP DP  RH WIND       PRES   REMARKS
PUEBLO         LGT SNOW  18  12  77 NE8       30.20R WCI   8
LA JUNTA       LGT SNOW  20  13  74 NE18      30.22R WCI   5
LAMAR          LGT SNOW  22  14  71 NE13      30.23R WCI  10
SPRINGFIELD      N/A     17  14  88 NE16      30.16S WCI   2
$$


USA.gov is the U.S. government's official web portal to all federal, state and local government web resources and services.